TimeEST,TemperatureF,Dew PointF,Humidity,Sea Level PressureIn,VisibilityMPH,Wind Direction,Wind SpeedMPH,Gust SpeedMPH,PrecipitationIn,Events,Conditions,WindDirDegrees,DateUTC
12:15 AM,39.2,32.0,75,30.22,10.0,North,8.1,-,N/A,,Clear,360,2013-11-28 05:15:00
12:35 AM,37.4,30.2,75,30.23,10.0,North,8.1,-,N/A,,Clear,360,2013-11-28 05:35:00
12:55 AM,37.4,28.4,70,30.24,7.0,North,5.8,-,N/A,,Clear,350,2013-11-28 05:55:00
1:15 AM,37.4,28.4,70,30.25,10.0,North,5.8,-,N/A,,Clear,350,2013-11-28 06:15:00
1:35 AM,37.4,28.4,70,30.25,10.0,North,9.2,-,N/A,,Clear,360,2013-11-28 06:35:00
1:55 AM,37.4,26.6,65,30.26,7.0,North,6.9,-,N/A,,Clear,360,2013-11-28 06:55:00
2:15 AM,37.4,26.6,65,30.26,7.0,North,9.2,-,N/A,,Clear,360,2013-11-28 07:15:00
2:35 AM,37.4,26.6,65,30.27,10.0,North,10.4,16.1,N/A,,Clear,360,2013-11-28 07:35:00
2:55 AM,37.4,26.6,65,30.27,7.0,North,8.1,-,N/A,,Clear,360,2013-11-28 07:55:00
3:15 AM,37.4,24.8,60,30.27,10.0,North,4.6,-,N/A,,Clear,10,2013-11-28 08:15:00
3:35 AM,35.6,28.4,75,30.28,7.0,NNE,5.8,-,N/A,,Clear,20,2013-11-28 08:35:00
3:55 AM,35.6,26.6,70,30.29,7.0,North,4.6,-,N/A,,Clear,10,2013-11-28 08:55:00
4:15 AM,35.6,26.6,70,30.29,10.0,NNE,6.9,-,N/A,,Clear,20,2013-11-28 09:15:00
4:35 AM,35.6,26.6,70,30.29,7.0,NNE,5.8,-,N/A,,Clear,20,2013-11-28 09:35:00
4:55 AM,35.6,26.6,70,30.31,10.0,North,6.9,-,N/A,,Clear,10,2013-11-28 09:55:00
5:15 AM,35.6,24.8,65,30.31,10.0,NNE,8.1,-,N/A,,Clear,30,2013-11-28 10:15:00
5:35 AM,35.6,24.8,65,30.32,10.0,NNE,8.1,-,N/A,,Clear,20,2013-11-28 10:35:00
5:55 AM,33.8,24.8,70,30.34,10.0,NNE,8.1,-,N/A,,Clear,20,2013-11-28 10:55:00
6:15 AM,35.6,24.8,65,30.35,7.0,North,9.2,18.4,N/A,,Clear,360,2013-11-28 11:15:00
6:35 AM,33.8,24.8,70,30.36,10.0,NNE,10.4,17.3,N/A,,Clear,20,2013-11-28 11:35:00
6:55 AM,33.8,23.0,65,30.36,7.0,NNE,9.2,-,N/A,,Clear,30,2013-11-28 11:55:00
7:15 AM,33.8,24.8,70,30.37,10.0,NNE,8.1,-,N/A,,Clear,30,2013-11-28 12:15:00
7:35 AM,33.8,24.8,70,30.37,10.0,NE,6.9,-,N/A,,Clear,40,2013-11-28 12:35:00
7:55 AM,33.8,24.8,70,30.38,10.0,NNE,8.1,-,N/A,,Clear,20,2013-11-28 12:55:00
8:15 AM,33.8,24.8,70,30.39,7.0,NE,8.1,-,N/A,,Clear,50,2013-11-28 13:15:00
8:35 AM,35.6,24.8,65,30.41,10.0,NE,10.4,-,N/A,,Clear,50,2013-11-28 13:35:00
8:55 AM,35.6,23.0,60,30.42,10.0,NE,8.1,11.5,N/A,,Clear,40,2013-11-28 13:55:00
9:15 AM,35.6,23.0,60,30.43,10.0,NNE,10.4,-,N/A,,Clear,30,2013-11-28 14:15:00
9:35 AM,37.4,24.8,60,30.43,10.0,NE,10.4,-,N/A,,Clear,40,2013-11-28 14:35:00
9:55 AM,37.4,24.8,60,30.44,10.0,NE,11.5,-,N/A,,Clear,50,2013-11-28 14:55:00
10:15 AM,39.2,24.8,56,30.44,10.0,NE,13.8,-,N/A,,Clear,40,2013-11-28 15:15:00
10:35 AM,39.2,24.8,56,30.44,7.0,NNE,8.1,16.1,N/A,,Clear,30,2013-11-28 15:35:00
10:55 AM,41.0,26.6,57,30.44,10.0,NNE,6.9,-,N/A,,Clear,30,2013-11-28 15:55:00
11:15 AM,41.0,26.6,57,30.44,10.0,North,5.8,-,N/A,,Clear,360,2013-11-28 16:15:00
11:35 AM,41.0,24.8,53,30.44,10.0,North,4.6,-,N/A,,Clear,10,2013-11-28 16:35:00
11:55 AM,42.8,26.6,53,30.43,10.0,North,6.9,-,N/A,,Clear,350,2013-11-28 16:55:00
12:15 PM,42.8,26.6,53,30.42,10.0,North,6.9,-,N/A,,Clear,10,2013-11-28 17:15:00
12:35 PM,42.8,28.4,57,30.42,10.0,North,4.6,-,N/A,,Clear,350,2013-11-28 17:35:00
12:55 PM,42.8,28.4,57,30.41,10.0,North,4.6,-,N/A,,Clear,350,2013-11-28 17:55:00
1:15 PM,44.6,28.4,53,30.41,10.0,NW,3.5,-,N/A,,Clear,320,2013-11-28 18:15:00
1:35 PM,44.6,28.4,53,30.41,10.0,North,3.5,-,N/A,,Clear,360,2013-11-28 18:35:00
1:55 PM,44.6,28.4,53,30.40,7.0,NNW,3.5,-,N/A,,Clear,340,2013-11-28 18:55:00
2:15 PM,44.6,28.4,53,30.40,10.0,North,3.5,-,N/A,,Clear,360,2013-11-28 19:15:00
2:35 PM,46.4,28.4,50,30.41,7.0,Calm,Calm,-,N/A,,Clear,0,2013-11-28 19:35:00
2:55 PM,46.4,28.4,50,30.41,10.0,North,3.5,-,N/A,,Clear,360,2013-11-28 19:55:00
3:15 PM,48.2,28.4,46,30.41,10.0,North,5.8,-,N/A,,Clear,350,2013-11-28 20:15:00
3:35 PM,46.4,28.4,50,30.42,10.0,Calm,Calm,-,N/A,,Clear,0,2013-11-28 20:35:00
3:55 PM,46.4,28.4,50,30.42,10.0,Calm,Calm,-,N/A,,Clear,0,2013-11-28 20:55:00
4:15 PM,46.4,28.4,50,30.42,10.0,Calm,Calm,-,N/A,,Clear,0,2013-11-28 21:15:00
4:35 PM,46.4,30.2,53,30.42,10.0,Calm,Calm,-,N/A,,Clear,0,2013-11-28 21:35:00
4:55 PM,44.6,30.2,57,30.43,10.0,Calm,Calm,-,N/A,,Clear,0,2013-11-28 21:55:00
5:15 PM,42.8,32.0,66,30.43,10.0,Calm,Calm,-,N/A,,Clear,0,2013-11-28 22:15:00
5:35 PM,39.2,32.0,75,30.43,10.0,Calm,Calm,-,N/A,,Clear,0,2013-11-28 22:35:00
5:55 PM,37.4,33.8,87,30.45,7.0,Calm,Calm,-,N/A,,Clear,0,2013-11-28 22:55:00
6:15 PM,37.4,33.8,87,30.46,10.0,Calm,Calm,-,N/A,,Clear,0,2013-11-28 23:15:00
6:35 PM,35.6,33.8,93,30.48,7.0,Calm,Calm,-,N/A,,Clear,0,2013-11-28 23:35:00
6:55 PM,35.6,33.8,93,30.47,7.0,Calm,Calm,-,N/A,,Clear,0,2013-11-28 23:55:00
7:15 PM,33.8,32.0,93,30.49,10.0,Calm,Calm,-,N/A,,Clear,0,2013-11-29 00:15:00
7:35 PM,33.8,33.8,100,30.49,7.0,Calm,Calm,-,N/A,,Clear,0,2013-11-29 00:35:00
7:55 PM,33.8,32.0,93,30.49,10.0,Calm,Calm,-,N/A,,Clear,0,2013-11-29 00:55:00
8:15 PM,33.8,32.0,93,30.50,7.0,Calm,Calm,-,N/A,,Clear,0,2013-11-29 01:15:00
8:35 PM,33.8,32.0,93,30.50,7.0,Calm,Calm,-,N/A,,Clear,0,2013-11-29 01:35:00
8:55 PM,33.8,32.0,93,30.50,7.0,Calm,Calm,-,N/A,,Clear,0,2013-11-29 01:55:00
9:15 PM,32.0,32.0,100,30.50,7.0,Calm,Calm,-,N/A,,Clear,0,2013-11-29 02:15:00
9:35 PM,32.0,32.0,100,30.50,7.0,Calm,Calm,-,N/A,,Clear,0,2013-11-29 02:35:00
9:55 PM,32.0,32.0,100,30.50,7.0,Calm,Calm,-,N/A,,Clear,0,2013-11-29 02:55:00
10:15 PM,32.0,32.0,100,30.50,7.0,Calm,Calm,-,N/A,,Clear,0,2013-11-29 03:15:00
10:35 PM,32.0,32.0,100,30.50,7.0,Calm,Calm,-,N/A,,Clear,0,2013-11-29 03:35:00
10:55 PM,32.0,32.0,100,30.50,7.0,Calm,Calm,-,N/A,,Clear,0,2013-11-29 03:55:00
11:15 PM,32.0,32.0,100,30.50,7.0,Calm,Calm,-,N/A,,Clear,0,2013-11-29 04:15:00
11:35 PM,32.0,32.0,100,30.50,7.0,Calm,Calm,-,N/A,,Clear,0,2013-11-29 04:35:00
11:55 PM,30.2,30.2,100,30.50,7.0,Calm,Calm,-,N/A,,Clear,0,2013-11-29 04:55:00